Regional Weather Roundup
Issued by NWS Memphis, TN

Home | Current Version | Previous Version | Text Only | Print | Product List | Glossary On
Versions: 1 2 3 4 5 6 7 8 9 10 11 12 13 14 15 16 17 18 19 20 21 22 23 24 25 26 27 28 29 30 31 32 33 34 35 36 37 38 39 40 41 42 43 44 45 46 47 48 49 50
000
ASUS44 KMEG 271910
RWRMEG
MEMPHIS CWA HOURLY WEATHER ROUNDUP
NATIONAL WEATHER SERVICE MEMPHIS TN
200 PM CDT FRI MAY 27 2016

...WEST TENNESSEE...

CITY           SKY/WX    TMP DP  RH WIND       PRES   REMARKS
MEMPHIS INTL   CLOUDY    80  67  64 S12       29.90F
NWS MEMPHIS      N/A     79 N/A N/A MISG        N/A
JACKSON        CLOUDY    77  68  73 S6        29.95F
LEXINGTON      SUNNY     82  63  51 S17       29.96F
DYERSBURG      CLOUDY    81  64  57 S10G21    29.92S
UNION CITY     MOSUNNY   81  72  74 S14       29.92F
PARIS          MOSUNNY   81  64  57 S15       29.96F


...EASTERN ARKANSAS...

CITY           SKY/WX    TMP DP  RH WIND       PRES   REMARKS
JONESBORO      LGT RAIN  70  68  93 S13       29.89F
WEST MEMPHIS   CLOUDY    76  68  76 VRB3      29.89F
BATESVILLE     CLOUDY    72  66  83 S9G22     29.86R
NEWPORT        LGT RAIN  72  72 100 S21       29.88S
WALNUT RIDGE   PTSUNNY   73  66  78 S21G28    29.86S
BLYTHEVILLE    CLOUDY    74  66  76 SW12G22   29.91S
SEARCY         LGT RAIN  71  70  96 S13       29.86F
STUTTGART      CLOUDY    73  66  78 S15       29.88R
PINE BLUFF     CLOUDY    73  70  90 S10       29.87F
MONTICELLO     HVY RAIN  78  72  81 S18G26    29.87R


...NORTH MISSISSIPPI...

CITY           SKY/WX    TMP DP  RH WIND       PRES   REMARKS
TUPELO         CLOUDY    84  64  50 SE13      29.96F
OXFORD         CLOUDY    81  66  61 SE16G22   29.94F
BATESVILLE     CLOUDY    82  66  60 S10G16    29.91F
OLIVE BRANCH   CLOUDY    77  72  83 SE10      29.91F
TUNICA         CLOUDY    81  68  65 S18       29.89F
CLARKSDALE     MOSUNNY   81  70  69 S17G23    29.88F
CORINTH        CLOUDY    82  68  61 S12G17    29.96F
GREENWOOD      CLOUDY    82  68  62 SE14      29.90F
COLUMBUS       CLOUDY    85  64  50 S15       29.97F
STARKVILLE     CLOUDY    84  64  51 S14G22    29.95F
GOLDEN TRIANGL MOSUNNY   82  64  54 S14G21    29.98F


...SOUTHEAST MISSOURI...

CITY           SKY/WX    TMP DP  RH WIND       PRES   REMARKS
KENNETT        RAIN      70  68  94 SW17G29   29.91R VSB 3/4
WEST PLAINS    PTSUNNY   76  65  68 S9        29.84F
POPLAR BLUFF   LGT RAIN  75  70  84 S13G25    29.86F
CAPE GIRARDEAU MOSUNNY   78  69  73 S20G30    29.87F


...NORTHWEST ALABAMA...

CITY           SKY/WX    TMP DP  RH WIND       PRES   REMARKS
MUSCLE SHOALS  PTSUNNY   85  59  41 S15G24    30.02F


...MIDDLE TENNESSEE...

CITY           SKY/WX    TMP DP  RH WIND       PRES   REMARKS
NASHVILLE      PTSUNNY   89  60  37 SW14      30.00F
CLARKSVILLE    MOSUNNY   81  65  58 S10       29.97F
COLUMBIA       SUNNY     84  68  58 S13       29.99F


...WESTERN KENTUCKY...

CITY           SKY/WX    TMP DP  RH WIND       PRES   REMARKS
PADUCAH        CLOUDY    83  69  62 SW10G20   29.90F
FORT CAMPBELL  MOSUNNY   84  66  54 S17G24    29.97F


...CENTRAL ARKANSAS...

CITY           SKY/WX    TMP DP  RH WIND       PRES   REMARKS
LITTLE ROCK    PTSUNNY   81  67  62 S12       29.83F


SKY/WX REPORTED AS FAIR MEANS FEW OR NO CLOUDS BELOW
12 THOUSAND FEET.




USA.gov is the U.S. government's official web portal to all federal, state and local government web resources and services.